Location: Unspecified
(50.7693°N, 0.0000°E)
Time: 17:01:41
(UTC+00:00)

SR - Pass Details

Date: 29 June 2019
Orbit: 580 x 875 km, 66.7° (Epoch: 16 July)

Event Time Altitude Azimuth Distance (km) Brightness Sun altitude
Rises 02:26:56 0° 215° (SW) 2,789 - -9.5°
Reaches altitude 10° 02:29:07 10° 215° (SW) 1,897 - -9.3°
Exits shadow 02:29:31 13° 215° (SW) 1,738 ? -9.3°
Maximum altitude 02:33:21 88° 126° (SE) 601 ? -8.9°
Drops below altitude 10° 02:37:48 10° 38° (NE) 1,985 ? -8.5°
Sets 02:40:08 0° 38° (NE) 2,932 ? -8.3°
